Theta_e
308 310 310 308 305 310 317 318 320 321 321 324 322 321 323 328 327 328 325 324 326 325 323 328 329 318 325 329 331 328 331 331 329 328 323 326 325 324 324 326 327 328 331 333 333
307 308 310 309 304 305 312 317 318 320 321 322 322 322 322 327 327 326 326 325 327 326 326 325 328 320 324 325 326 328 331 333 330 326 324 325 326 323 324 326 326 327 333 335 333
307 307 309 307 307 305 308 314 317 319 320 321 321 321 322 325 321 325 326 325 326 327 326 325 327 323 322 323 321 331 335 331 332 324 320 324 325 324 323 325 326 327 331 334 332
306 307 306 307 305 306 308 312 315 316 320 321 321 320 321 323 328 325 325 327 326 326 328 327 325 325 324 325 324 325 331 332 332 322 320 320 321 322 322 323 323 325 325 329 327
307 307 306 306 306 304 307 310 314 315 314 318 318 320 321 323 324 323 324 324 324 326 328 327 324 322 324 325 325 324 327 329 318 318 317 318 319 319 322 323 323 323 327 328 327
307 306 306 306 306 305 304 309 312 315 314 314 316 318 321 323 324 323 323 325 324 324 327 328 327 324 324 325 327 326 326 323 319 316 316 317 318 317 319 320 321 320 326 329 332
307 306 305 306 306 306 305 308 312 315 316 314 314 316 323 322 323 323 321 323 323 323 326 330 330 326 324 325 323 323 327 322 318 322 321 318 320 317 319 319 318 319 326 328 326
306 305 305 306 307 307 305 307 313 315 316 316 315 315 321 321 323 321 319 318 323 324 325 328 329 326 323 319 319 321 322 326 324 320 320 318 330 326 324 319 319 319 322 327 329
305 305 306 307 308 307 305 307 311 315 315 314 313 314 315 320 323 321 320 320 321 322 323 326 326 322 324 321 323 322 325 325 326 323 317 317 327 327 328 322 320 320 320 323 327
305 305 307 308 308 308 306 307 309 313 315 315 314 315 313 319 322 320 321 321 323 322 321 322 324 323 319 326 331 325 325 324 326 323 322 317 319 322 324 321 321 320 321 321 324
305 305 307 308 309 309 309 310 312 313 313 314 313 311 312 315 320 321 322 323 320 320 320 320 320 326 325 325 328 325 327 329 327 320 320 321 321 321 323 324 319 319 321 322 322
304 306 307 308 308 309 309 311 311 311 314 314 313 311 311 313 319 321 321 319 318 320 319 318 323 323 324 323 325 327 329 330 325 315 316 319 320 320 320 322 324 323 322 321 320
305 306 307 307 306 307 309 311 311 311 312 313 313 311 312 313 315 321 321 318 317 320 321 321 321 322 325 325 325 327 328 330 332 318 317 316 318 319 319 321 321 320 320 321 320
305 305 306 306 305 305 308 310 310 310 311 311 313 312 311 312 313 320 319 318 319 321 321 321 320 322 323 325 324 328 323 326 326 321 323 318 321 320 320 320 320 320 318 317 318
304 305 305 305 305 307 306 309 309 309 311 311 313 312 311 311 315 319 319 319 320 321 320 319 320 321 323 324 322 324 321 322 320 322 322 322 320 317 317 318 319 321 319 317 317
304 304 304 304 305 306 308 307 308 308 311 312 313 313 315 312 315 317 319 318 320 320 319 316 319 320 321 320 320 318 318 319 319 320 321 320 318 316 316 317 317 320 323 322 322
304 304 304 304 305 307 307 308 308 308 307 311 309 314 314 314 316 318 318 317 321 322 322 316 320 313 320 321 318 318 318 319 321 321 318 311 316 316 316 317 317 317 317 317 317
304 303 304 304 305 306 307 307 309 307 310 306 310 312 316 315 315 317 317 317 319 318 319 320 321 315 316 321 319 317 319 318 319 318 315 309 313 314 315 315 316 315 314 313 316
304 303 303 303 304 306 306 307 307 310 308 310 310 313 311 313 312 316 314 318 318 318 319 319 317 315 315 319 317 318 320 316 313 304 314 314 314 315 314 314 315 315 314 313 312
303 302 302 302 304 304 305 304 306 308 310 310 313 310 314 310 313 315 316 317 317 316 314 315 316 314 314 316 315 318 316 317 316 313 315 315 316 315 314 314 312 312 313 312 312
301 300 300 300 302 303 303 302 304 307 308 311 312 312 310 312 313 315 317 316 316 315 314 312 314 312 311 314 315 312 317 315 316 317 319 318 314 313 312 312 310 310 311 311 311
300 301 300 301 302 302 302 305 305 304 308 309 308 312 311 313 314 314 315 316 315 315 315 312 312 311 313 307 307 312 316 315 316 318 315 315 315 311 310 309 311 311 311 310 310
301 302 300 301 301 302 302 302 304 307 307 308 308 309 312 311 315 316 316 317 315 315 312 310 310 313 313 311 308 312 312 315 312 314 315 313 313 309 309 309 311 312 311 311 311
300 302 302 301 301 302 301 304 305 304 307 307 308 308 309 310 312 315 318 316 315 314 311 311 311 312 315 314 311 312 313 314 314 313 315 315 313 309 308 308 310 310 311 312 312
301 302 301 302 301 302 303 302 305 306 305 307 307 307 309 309 312 315 316 316 315 313 311 311 309 310 311 310 311 312 313 313 315 314 315 314 315 313 309 309 310 311 313 313 312
299 302 302 302 301 303 303 302 304 305 307 307 308 308 309 309 309 313 316 315 314 312 311 311 307 307 306 309 310 312 313 313 314 315 314 313 313 313 314 315 313 312 312 311 311
298 301 303 303 303 303 303 303 303 304 305 306 307 308 309 309 308 307 315 314 313 313 312 311 306 308 305 309 310 310 312 313 314 314 314 314 313 309 309 311 311 313 312 310 311
Wind_Speed
36 31 30 30 32 36 30 27 31 32 30 32 26 24 26 26 23 26 26 18 20 9 12 19 14 8 5 3 4 5 4 4 7 3 5 10 5 3 7 10 5 3 5 7 26
38 33 30 29 31 33 34 30 31 32 30 31 29 25 26 27 26 30 29 24 19 19 16 19 15 10 5 6 9 6 4 6 12 7 1 8 9 10 5 11 5 7 11 15 24
39 36 30 30 30 32 34 33 29 31 35 27 30 26 26 28 23 26 32 27 28 19 10 13 17 13 13 10 7 5 4 9 15 8 7 5 7 8 6 6 12 16 18 17 21
39 38 33 30 30 31 31 34 31 29 35 32 26 27 26 28 13 25 34 31 26 25 20 16 20 17 12 8 15 5 9 8 11 4 1 3 3 5 9 2 6 11 15 19 19
40 37 33 30 29 30 30 33 32 28 26 44 33 27 28 33 28 8 31 35 29 25 25 21 18 20 14 16 14 8 6 14 5 4 5 4 5 3 11 12 7 5 17 17 17
39 36 32 30 29 29 30 30 33 30 28 34 43 30 34 26 27 17 21 32 35 32 28 27 14 23 9 15 14 10 12 11 9 7 4 4 6 4 10 12 14 12 17 17 19
37 34 31 30 29 28 30 30 32 31 31 29 36 43 36 33 31 24 19 31 35 36 30 26 15 17 6 5 4 2 7 6 7 9 4 8 8 7 14 7 11 12 18 18 19
36 33 31 29 28 28 30 29 29 31 29 30 30 40 15 44 29 31 24 23 31 29 21 23 26 16 1 3 3 3 1 5 6 12 5 7 8 13 22 17 14 15 17 21 20
34 33 31 29 26 27 28 28 28 28 29 30 25 27 16 20 45 37 35 27 32 24 20 18 14 8 6 4 2 6 4 6 4 20 6 7 2 10 18 24 18 15 20 22 22
33 33 31 28 25 23 25 26 24 24 24 24 28 15 23 16 46 38 34 27 35 31 20 17 8 6 4 11 11 5 4 7 7 7 8 7 10 8 8 4 13 16 17 23 23
33 35 32 29 24 23 23 23 15 12 29 14 10 14 17 9 35 35 38 36 35 34 11 18 7 13 20 14 6 14 12 8 12 5 5 9 9 11 20 19 15 16 18 19 25
35 35 33 30 26 23 23 21 27 17 8 34 23 23 24 27 16 41 45 26 34 26 18 10 19 18 14 15 14 9 12 9 5 6 2 7 11 9 15 19 22 24 21 19 16
34 35 34 29 25 23 26 19 20 23 3 9 28 33 32 20 18 39 50 26 28 24 24 21 15 19 19 18 17 14 11 9 6 5 5 6 10 11 12 23 23 26 27 27 23
34 35 33 28 23 23 22 15 20 12 3 9 10 12 22 26 10 41 49 32 10 27 25 12 13 19 18 19 17 16 11 9 8 4 2 6 5 5 5 16 19 26 32 34 32
36 33 33 33 17 25 24 20 13 11 6 6 11 12 20 18 10 31 43 17 19 16 14 14 22 24 21 18 13 5 9 4 6 1 6 5 2 6 7 6 8 25 32 34 35
34 33 33 29 19 22 20 23 18 5 9 6 7 14 12 23 16 36 27 15 24 15 5 4 11 13 7 8 9 8 10 7 3 2 6 10 8 5 6 7 8 7 23 33 29
34 32 33 34 24 26 27 27 5 8 5 5 7 14 24 10 16 23 15 17 13 16 16 4 7 4 13 14 6 8 12 3 2 4 6 5 8 10 5 3 2 1 8 6 7
34 28 25 27 24 28 32 5 7 11 7 2 2 2 13 15 11 24 15 16 15 17 18 13 10 13 12 24 13 20 13 5 7 5 4 4 7 6 8 2 5 7 7 9 11
33 31 27 27 26 26 21 9 5 3 12 6 4 5 3 5 6 18 15 18 16 21 13 12 5 11 15 19 13 14 16 5 6 0 2 5 6 7 10 4 5 10 12 8 7
36 27 24 27 22 27 6 11 4 2 4 7 8 4 3 8 8 13 21 18 16 15 9 5 6 7 7 10 6 18 11 5 2 5 5 5 4 6 4 7 6 6 5 2 3
29 13 18 26 26 14 7 5 6 9 7 6 9 4 3 7 6 12 24 15 23 19 10 14 6 2 7 8 17 6 15 6 5 4 5 1 5 6 9 8 8 9 8 4 1
25 5 27 35 7 5 8 6 10 13 10 2 3 6 5 11 8 7 19 18 34 21 20 3 6 9 12 3 5 6 12 4 5 6 2 3 5 3 9 9 16 12 9 6 6
24 9 35 41 8 10 6 12 7 4 10 7 8 4 7 4 7 11 21 10 36 22 13 8 6 9 4 6 1 9 10 18 5 4 6 5 5 2 11 9 10 12 8 3 6
14 5 13 26 11 13 14 9 9 22 8 10 4 6 3 3 10 15 15 12 36 22 19 9 5 7 15 14 7 8 14 14 5 3 5 11 5 6 6 7 9 9 4 1 6
7 4 7 11 13 15 15 12 16 7 13 15 4 13 8 6 10 12 17 9 20 26 9 7 5 5 7 8 11 20 13 7 15 8 8 14 14 9 10 9 17 15 6 10 13
9 5 6 7 24 15 19 15 21 19 8 12 18 17 12 13 16 4 14 15 17 16 18 8 5 6 4 7 10 20 22 20 27 27 20 11 12 4 17 15 13 7 5 9 7
10 10 8 6 15 15 15 20 23 23 23 22 21 11 17 23 22 31 32 34 17 28 22 12 6 6 1 7 11 0 26 28 26 21 27 14 13 6 5 4 8 11 15 14 14
Wind_Direction
238 241 240 239 235 230 230 233 227 222 222 226 223 224 224 222 222 218 214 222 213 191 195 224 243 256 218 209 188 106 71 269 238 295 111 149 126 107 99 120 107 131 88 165 174
235 239 238 236 235 234 229 229 228 225 221 224 223 223 225 227 222 225 214 210 205 207 192 199 227 226 201 185 170 184 138 241 334 341 49 161 191 149 152 135 142 156 118 161 171
233 236 238 234 234 230 228 228 226 222 220 219 221 222 224 228 220 228 213 211 209 200 176 188 229 226 229 191 180 188 192 161 285 343 7 159 220 143 194 173 192 184 161 181 182
231 233 237 232 231 228 227 224 226 223 216 206 220 221 226 224 229 235 215 204 204 207 192 191 196 222 226 203 189 202 214 176 241 255 306 282 242 170 223 149 140 175 190 191 190
228 230 234 231 228 227 224 222 221 223 226 222 220 223 225 219 218 236 208 211 203 204 201 195 193 200 221 196 194 210 214 182 204 184 232 226 239 246 209 224 239 155 185 197 201
224 228 230 225 224 224 222 222 219 218 220 222 221 228 224 228 214 216 202 202 202 198 201 194 204 201 258 217 219 191 212 188 164 184 217 242 214 182 241 225 201 185 197 200 203
220 225 226 221 220 220 218 220 217 217 216 214 221 230 218 223 206 200 218 206 197 197 195 199 185 209 229 181 249 204 208 163 168 213 233 215 266 219 225 190 188 205 199 206 203
219 222 216 215 216 216 215 217 215 213 211 208 218 228 245 225 210 194 195 192 192 190 185 203 200 198 151 133 157 212 253 181 200 172 200 170 253 220 242 229 209 212 210 204 207
219 213 208 210 210 211 212 213 214 212 211 214 219 223 255 220 208 198 195 179 173 175 172 179 171 152 150 117 128 213 181 201 273 187 134 183 268 245 253 221 212 228 213 211 205
210 203 201 201 204 204 207 208 209 211 211 209 217 208 241 242 206 190 186 174 165 158 139 147 151 166 181 183 200 141 200 186 208 195 192 196 242 285 291 266 214 233 243 210 205
207 200 196 194 194 195 195 185 184 202 208 200 164 204 253 221 183 178 175 164 158 159 163 169 161 202 188 194 187 174 191 199 216 151 154 238 249 241 241 250 234 241 241 244 207
205 196 192 193 193 192 192 190 201 204 196 218 221 215 236 249 238 181 167 154 165 178 146 155 213 194 192 192 224 191 171 214 351 121 174 266 261 232 223 236 229 232 240 243 222
197 194 193 190 188 188 194 194 199 207 176 212 204 206 211 232 261 179 167 156 177 172 173 178 182 172 183 193 203 218 209 187 200 152 226 293 282 238 238 242 231 230 236 231 231
193 190 187 182 180 185 191 185 203 162 217 196 190 231 212 225 275 182 170 149 171 185 184 193 166 185 190 193 188 207 220 156 200 113 240 156 285 310 279 223 218 219 226 233 230
195 190 187 189 178 180 185 186 187 153 248 182 162 190 202 180 216 191 180 176 165 168 171 187 185 182 191 188 181 191 117 100 96 280 322 235 264 269 231 260 212 215 221 231 234
193 189 185 176 172 178 169 173 148 155 213 216 164 175 161 183 221 179 196 177 165 159 195 62 167 173 151 145 148 134 114 96 105 122 265 217 206 260 213 218 217 201 213 228 235
180 176 174 177 164 166 162 147 151 206 105 212 224 175 178 178 202 181 176 166 161 148 172 126 175 68 159 145 123 155 136 125 166 200 232 348 198 237 270 120 66 296 268 254 249
173 173 168 175 170 166 163 125 212 176 193 164 264 311 175 167 196 178 164 171 171 171 152 158 177 165 186 175 179 174 166 152 179 188 201 310 229 245 244 360 181 239 256 268 261
169 166 165 163 169 165 163 188 191 159 196 152 96 215 169 166 160 165 172 176 176 171 160 165 161 173 175 168 148 199 195 128 105 92 73 201 252 288 262 218 252 268 222 243 269
158 156 177 178 163 175 174 211 187 161 128 154 190 217 190 167 163 186 172 190 174 176 130 157 102 173 169 158 211 183 155 157 208 151 234 249 233 227 206 206 215 171 177 149 274
154 137 185 176 178 167 199 207 211 210 183 166 192 155 230 179 176 182 180 191 179 186 167 124 115 147 133 204 186 156 186 184 134 171 174 155 256 206 175 166 157 117 111 109 82
147 160 178 167 164 192 208 177 201 203 175 142 105 198 204 197 176 157 188 188 184 174 178 124 115 152 192 343 5 234 191 151 169 206 211 152 267 193 136 139 133 138 129 101 66
153 125 172 167 170 190 216 219 226 192 183 172 200 167 178 246 197 203 186 198 195 178 157 170 136 119 154 338 299 208 221 192 95 94 199 133 254 284 123 128 147 144 138 93 20
150 145 156 193 202 188 189 206 190 220 219 203 193 168 186 288 273 215 195 212 180 172 135 105 133 169 184 183 111 186 203 199 135 138 159 218 144 158 171 176 171 181 188 264 338
144 171 165 175 210 193 187 196 198 190 219 194 195 231 202 237 264 230 222 165 196 158 150 119 135 130 161 153 150 174 193 198 214 193 190 227 215 213 194 190 189 195 232 300 308
134 144 187 166 195 202 196 211 199 202 159 208 220 200 198 214 218 256 168 177 181 185 180 172 144 117 37 151 158 181 192 190 204 209 227 248 263 162 222 238 205 219 275 284 286
176 161 161 190 185 191 200 211 212 207 212 212 205 203 205 215 211 229 220 182 182 181 184 162 126 135 141 124 107 49 202 196 216 207 215 210 221 133 120 132 191 248 271 280 279